Probability
0 0 0 0 0 0 0 0 0 0 0 0 0 0 0 0 0 0 0 0 0 0 0 0 0 0 0 0 0 0 0 0 0 0 0 0 0 0 0 0 0 0 0 0
0 0 0 0 0 0 0 0 0 0 0 0 0 0 0 0 0 0 0 0 0 0 0 0 0 0 0 0 0 0 0 0 0 0 0 0 0 0 0 0 0 0 0 0
0 0 0 0 0 0 0 0 0 0 0 0 0 0 0 0 0 0 0 0 0 0 0 0 0 0 0 0 0 0 0 0 0 0 0 0 0 0 0 0 0 0 0 0
0 0 0 0 0 0 0 0 0 0 0 0 0 0 0 0 0 0 0 0 0 0 0 0 0 0 0 0 0 0 0 0 0 0 0 0 0 0 0 0 0 0 0 0
0 0 0 0 0 0 0 0 0 0 0 0 0 0 0 0 0 0 0 0 0 0 0 0 0 0 0 0 0 0 0 0 0 0 0 0 0 0 0 0 0 0 0 0
0 0 0 0 0 0 0 0 0 0 0 0 0 0 0 0 0 0 0 0 0 0 0 0 0 0 0 0 0 0 0 0 0 0 0 0 0 0 0 0 0 0 0 0
0 0 0 0 0 0 0 0 0 0 0 0 0 0 0 0 0 0 0 0 0 0 0 0 0 0 0 0 0 0 0 0 0 0 0 0 0 0 0 0 0 0 0 0
0 0 0 0 0 0 0 0 0 0 0 0 0 0 0 0 0 0 0 0 0 0 0 0 0 0 0 0 0 0 0 0 0 0 0 0 0 0 0 0 0 0 0 0
0 0 0 0 0 0 0 0 0 0 0 0 0 0 0 0 0 0 0 0 0 0 0 0 0 0 0 0 0 0 0 0 0 0 0 0 0 0 0 0 0 0 0 0
0 0 0 0 0 0 0 0 0 0 0 0 0 0 0 0 0 0 0 0 0 0 0 0 0 0 0 0 0 0 0 0 0 0 0 0 0 0 0 0 0 0 0 0
0 0 0 0 0 0 0 0 0 0 0 0 0 0 0 0 0 0 0 0 0 0 0 0 0 0 0 0 0 0 0 0 0 0 0 0 0 0 0 0 0 0 0 0
0 0 0 0 0 0 0 0 0 0 0 0 0 0 0 0 0 0 0 0 0 0 0 0 0 0 0 0 0 0 0 0 0 0 0 0 0 0 0 0 0 0 0 0
0 0 0 0 0 0 0 0 0 0 0 0 0 0 0 0 0 0 0 0 0 0 0 0 0 0 0 0 0 0 0 0 0 0 0 0 0 0 0 0 0 0 0 0
0 0 0 0 0 0 0 0 0 0 0 0 0 0 0 0 0 0 0 0 0 0 0 0 0 0 0 0 0 0 0 0 0 0 0 0 0 0 0 0 0 0 0 0
0 0 0 0 0 0 0 0 0 0 0 0 0 0 0 0 0 0 0 0 0 0 0 0 0 0 0 0 0 0 0 0 0 0 0 0 0 0 0 0 0 0 0 0
0 0 0 0 0 0 0 0 0 0 0 0 0 0 0 0 0 0 0 0 0 0 0 0 0 0 0 0 0 0 0 0 0 0 0 0 0 0 0 0 0 0 0 0
0 0 0 0 0 0 0 0 0 0 0 0 0 0 0 0 0 0 0 0 0 0 0 0 0 0 0 0 0 0 0 0 0 0 0 0 0 0 0 0 0 0 0 0
0 0 0 0 0 0 0 0 0 0 0 0 0 0 0 0 0 0 0 0 0 0 0 0 0 0 0 0 0 0 0 0 0 0 0 0 0 0 0 0 0 0 0 0
0 0 0 0 0 0 0 0 0 0 0 0 0 0 0 0 0 0 0 0 0 0 0 0 0 0 0 0 0 0 0 0 0 0 0 0 0 0 0 0 0 0 0 0
0 0 0 0 0 0 0 0 0 0 0 0 0 0 0 0 0 0 0 0 0 0 0 0 0 0 0 0 0 0 0 0 0 0 0 0 0 0 0 0 0 0 0 0
0 0 0 0 0 0 0 0 0 0 0 0 0 0 0 0 0 0 0 0 0 0 0 0 0 0 0 0 0 0 0 0 0 0 0 0 0 0 0 0 0 0 0 0
0 0 0 0 0 0 0 0 0 0 0 0 0 0 0 0 0 0 0 0 0 0 0 0 0 0 0 0 0 0 0 0 0 0 0 0 0 0 0 0 0 0 0 0
0 0 0 0 0 0 0 0 0 0 0 0 0 0 0 0 0 0 0 0 0 0 0 0 0 0 0 0 0 0 0 0 0 0 0 0 0 0 0 0 0 0 0 0
0 0 0 0 0 0 0 0 0 0 0 0 0 0 0 0 0 0 0 0 0 0 0 0 0 0 0 0 0 0 0 0 0 0 0 0 0 0 0 0 0 0 0 0
0 0 0 0 0 0 0 0 0 0 0 0 0 0 0 0 0 0 0 0 0 0 0 0 0 0 0 0 0 0 0 0 0 0 0 0 0 0 0 0 0 0 0 0
0 0 0 0 0 0 0 0 0 0 0 0 0 0 0 0 0 0 0 0 0 0 0 0 0 0 0 0 0 0 0 0 0 0 0 0 0 0 0 0 0 0 0 0
Height
5663 5663 5663 5665 5665 5666 5666 5667 5668 5670 5670 5671 5672 5674 5676 5678 5679 5682 5684 5687 5690 5693 5696 5699 5701 5704 5707 5710 5713 5716 5719 5722 5724 5727 5729 5732 5734 5737 5740 5743 5745 5747 5749 5751
5652 5653 5656 5655 5654 5654 5655 5655 5657 5658 5659 5659 5661 5663 5665 5667 5669 5671 5673 5675 5678 5681 5684 5687 5690 5693 5696 5699 5702 5704 5707 5710 5713 5716 5719 5722 5724 5727 5730 5732 5735 5737 5739 5741
5641 5644 5644 5643 5643 5643 5644 5645 5646 5647 5647 5647 5648 5651 5654 5657 5658 5660 5662 5664 5667 5670 5672 5675 5678 5681 5684 5687 5690 5693 5695 5698 5701 5704 5707 5710 5713 5716 5719 5721 5724 5726 5728 5730
5629 5631 5631 5631 5631 5632 5633 5635 5635 5635 5635 5636 5638 5638 5644 5646 5647 5650 5652 5654 5656 5658 5661 5663 5666 5669 5672 5675 5678 5681 5684 5686 5689 5692 5696 5699 5702 5705 5708 5710 5713 5715 5718 5720
5618 5619 5618 5619 5621 5621 5622 5623 5623 5623 5623 5624 5626 5627 5633 5634 5637 5639 5642 5643 5645 5647 5649 5651 5654 5657 5660 5662 5665 5668 5671 5674 5677 5680 5683 5687 5690 5693 5696 5698 5701 5703 5706 5708
5607 5607 5607 5609 5610 5610 5611 5612 5611 5611 5611 5613 5616 5616 5620 5623 5626 5629 5631 5632 5634 5636 5638 5640 5642 5645 5648 5650 5653 5656 5659 5662 5665 5668 5671 5674 5677 5680 5683 5686 5689 5691 5694 5696
5595 5596 5596 5598 5598 5599 5600 5601 5600 5599 5599 5603 5606 5605 5609 5614 5616 5618 5620 5621 5623 5625 5627 5629 5631 5634 5636 5638 5641 5644 5646 5649 5652 5655 5658 5661 5664 5667 5670 5673 5676 5679 5681 5684
5584 5586 5587 5587 5587 5588 5589 5590 5591 5590 5591 5593 5594 5595 5600 5603 5605 5607 5609 5610 5611 5613 5615 5617 5620 5622 5624 5626 5628 5631 5634 5636 5639 5642 5645 5648 5651 5654 5657 5660 5663 5666 5668 5671
5574 5576 5577 5577 5577 5578 5579 5579 5581 5581 5581 5582 5583 5586 5589 5591 5593 5596 5598 5599 5601 5603 5604 5606 5608 5610 5612 5614 5616 5618 5621 5624 5626 5629 5632 5635 5638 5641 5644 5647 5650 5652 5655 5657
5564 5566 5567 5567 5567 5568 5569 5570 5571 5570 5570 5570 5573 5576 5579 5581 5582 5584 5586 5588 5590 5591 5593 5594 5596 5597 5599 5601 5604 5606 5608 5611 5614 5616 5619 5622 5625 5628 5631 5633 5636 5639 5641 5643
5555 5556 5557 5557 5557 5557 5558 5559 5559 5560 5560 5561 5562 5568 5569 5570 5571 5573 5575 5576 5578 5580 5581 5582 5584 5585 5587 5589 5592 5594 5596 5599 5601 5604 5607 5610 5612 5615 5617 5620 5622 5625 5627 5629
5545 5545 5546 5547 5547 5547 5548 5548 5549 5550 5551 5551 5552 5558 5559 5560 5560 5562 5564 5565 5567 5568 5570 5571 5572 5574 5576 5577 5580 5582 5584 5586 5589 5591 5594 5597 5599 5601 5604 5606 5609 5611 5613 5615
5536 5536 5536 5537 5539 5538 5537 5538 5539 5540 5540 5541 5542 5548 5548 5549 5550 5551 5552 5554 5555 5557 5558 5560 5561 5563 5564 5566 5568 5570 5572 5574 5576 5579 5581 5584 5586 5588 5590 5593 5595 5597 5599 5601
5526 5526 5527 5527 5527 5527 5528 5528 5528 5529 5529 5531 5533 5535 5537 5538 5539 5540 5541 5543 5544 5545 5546 5548 5549 5551 5552 5554 5556 5558 5560 5562 5564 5566 5568 5571 5573 5575 5577 5579 5581 5583 5584 5586
5517 5517 5517 5517 5517 5517 5518 5519 5519 5519 5520 5521 5523 5524 5526 5527 5528 5529 5531 5532 5533 5534 5535 5536 5538 5539 5540 5542 5544 5545 5547 5549 5551 5553 5555 5557 5559 5561 5563 5565 5566 5568 5570 5571
5508 5508 5508 5508 5508 5507 5507 5508 5509 5509 5510 5511 5512 5514 5516 5516 5517 5518 5519 5520 5521 5522 5523 5524 5525 5527 5528 5529 5531 5533 5535 5536 5538 5540 5542 5544 5546 5547 5549 5550 5552 5554 5555 5556
5501 5500 5499 5499 5498 5497 5498 5500 5499 5499 5500 5502 5503 5506 5505 5506 5506 5507 5508 5509 5510 5510 5511 5512 5513 5514 5516 5517 5518 5520 5522 5523 5525 5527 5528 5530 5532 5533 5535 5536 5538 5539 5540 5541
5494 5492 5491 5490 5490 5489 5493 5491 5491 5490 5491 5492 5493 5494 5495 5495 5495 5496 5497 5498 5498 5499 5500 5500 5501 5502 5504 5504 5506 5507 5509 5510 5512 5513 5515 5516 5518 5519 5521 5522 5523 5524 5525 5526
5487 5485 5483 5482 5481 5481 5483 5483 5482 5482 5483 5484 5484 5484 5484 5484 5485 5487 5487 5487 5487 5488 5488 5489 5490 5490 5491 5492 5493 5495 5496 5498 5499 5500 5501 5503 5504 5505 5506 5507 5508 5509 5509 5510
5480 5478 5477 5474 5473 5473 5477 5476 5474 5474 5475 5476 5474 5475 5475 5474 5475 5478 5477 5476 5476 5477 5477 5477 5478 5479 5480 5481 5481 5483 5484 5485 5486 5487 5488 5489 5490 5491 5492 5493 5494 5494 5494 5495
5473 5471 5469 5467 5465 5466 5468 5467 5466 5468 5469 5468 5466 5466 5465 5465 5466 5467 5466 5466 5466 5466 5466 5466 5466 5467 5468 5469 5470 5471 5472 5473 5473 5474 5475 5476 5476 5477 5478 5478 5479 5479 5479 5480
5465 5464 5462 5461 5459 5462 5460 5459 5459 5460 5459 5458 5457 5457 5456 5456 5456 5456 5456 5455 5455 5455 5455 5455 5454 5455 5455 5456 5457 5459 5460 5460 5461 5461 5462 5463 5463 5463 5464 5464 5464 5464 5465 5465
5458 5458 5456 5455 5456 5455 5453 5452 5452 5451 5450 5449 5449 5448 5448 5447 5447 5446 5446 5446 5445 5445 5444 5444 5444 5444 5445 5445 5445 5447 5448 5448 5448 5449 5450 5450 5450 5450 5450 5450 5451 5451 5450 5450
5452 5451 5449 5448 5448 5447 5446 5445 5444 5443 5442 5441 5440 5439 5439 5438 5437 5437 5436 5436 5435 5435 5434 5433 5433 5433 5434 5434 5434 5435 5436 5437 5437 5437 5437 5437 5437 5437 5437 5437 5437 5437 5436 5436
5445 5444 5442 5441 5441 5440 5439 5438 5436 5435 5434 5432 5431 5430 5429 5429 5428 5427 5427 5426 5425 5425 5424 5423 5423 5423 5424 5424 5424 5424 5424 5425 5425 5425 5425 5425 5425 5425 5425 5424 5424 5423 5423 5422
5439 5437 5436 5435 5434 5432 5432 5430 5429 5427 5426 5424 5423 5422 5421 5420 5419 5418 5417 5416 5416 5415 5415 5414 5414 5414 5414 5414 5413 5413 5413 5413 5413 5413 5413 5413 5413 5412 5412 5411 5411 5410 5410 5409
Wind_Speed
37 38 38 37 37 38 39 39 39 39 40 40 40 41 40 40 41 41 42 43 44 45 46 46 45 45 44 44 44 44 44 44 45 45 45 44 44 43 42 40 41 40 40 40
38 39 38 38 38 39 40 40 40 40 40 42 42 41 40 41 40 40 41 42 43 44 45 46 46 46 45 45 45 46 46 45 46 45 46 46 46 45 45 44 43 42 42 41
39 38 39 39 39 39 40 40 40 40 40 41 43 42 40 40 40 40 40 41 42 43 45 46 46 46 46 46 46 46 47 47 47 46 47 47 48 47 47 46 44 43 43 44
39 38 39 39 40 40 40 39 40 41 41 41 42 43 39 39 39 39 40 40 41 41 43 45 46 46 46 47 48 48 48 48 48 48 48 48 49 48 48 47 47 46 45 44
37 37 37 38 38 38 38 38 39 39 40 41 41 43 40 39 39 38 39 39 40 41 42 43 45 46 46 47 47 48 49 49 49 49 49 50 50 50 49 49 49 48 47 46
36 36 36 36 36 36 36 37 38 39 40 41 39 41 40 38 37 37 37 38 38 39 40 42 43 44 45 46 47 48 48 49 50 50 51 51 51 51 51 51 50 50 49 49
33 34 35 35 36 36 36 36 37 38 40 41 39 40 40 37 36 36 36 37 38 38 39 40 42 42 44 45 46 47 47 48 49 50 50 51 52 52 52 51 51 51 50 50
32 32 33 34 35 36 36 36 37 39 40 40 40 40 39 38 38 37 37 37 38 38 39 40 41 42 43 44 46 46 46 47 48 49 50 51 51 52 51 51 51 51 52 51
31 32 33 33 34 35 36 36 36 37 39 40 40 39 38 38 38 38 38 38 38 38 39 40 41 41 42 43 45 46 46 46 48 49 50 50 51 51 51 51 51 52 52 52
32 33 33 33 33 34 35 35 35 36 37 39 41 39 37 36 36 37 37 38 38 38 38 39 40 41 41 42 44 45 46 47 47 49 49 50 51 52 52 53 53 53 53 52
31 32 32 32 32 32 33 34 36 36 37 38 39 39 37 37 36 36 36 37 37 37 38 38 39 40 41 41 42 44 45 46 47 48 49 49 50 51 52 52 53 54 54 53
30 31 31 31 31 32 33 34 35 36 36 37 38 38 36 37 36 36 37 37 38 38 38 38 39 39 40 41 41 43 44 46 47 48 49 49 49 50 51 52 53 54 54 54
30 31 31 31 31 31 32 33 34 36 37 37 38 38 36 37 36 36 36 37 37 38 39 39 39 40 40 41 41 42 44 45 47 48 49 50 50 51 51 52 53 54 54 54
29 30 31 32 32 32 31 31 32 34 35 36 37 37 36 37 37 37 36 36 37 37 38 38 39 40 40 41 42 42 43 44 46 47 48 49 50 51 52 52 52 53 53 54
28 30 29 30 31 31 31 31 32 33 34 35 35 36 35 37 38 37 37 37 38 38 38 39 39 40 40 41 42 43 43 44 46 46 47 48 50 51 52 53 53 53 52 53
27 28 28 29 29 31 31 30 31 32 33 34 34 34 34 35 36 36 37 37 37 38 39 39 39 40 40 41 42 42 43 44 45 46 47 48 49 50 51 52 52 53 54 53
25 26 27 27 27 29 30 28 28 30 31 33 34 33 34 34 34 34 35 36 37 37 38 38 39 39 40 41 41 42 43 44 44 45 46 47 48 49 50 51 52 52 53 54
24 24 25 26 26 27 25 25 25 27 28 30 32 33 33 34 35 35 35 36 36 37 38 38 39 40 41 42 42 42 43 43 44 45 46 47 48 48 49 50 50 51 52 52
23 24 25 25 26 26 23 23 25 26 27 27 29 31 32 33 34 34 35 36 36 37 37 38 39 39 39 40 41 42 42 43 43 44 45 46 47 48 48 49 49 50 50 51
22 23 24 25 26 26 24 24 24 26 25 25 27 28 29 30 33 32 34 35 36 37 37 37 38 39 39 40 40 40 41 41 42 43 44 45 46 46 47 48 48 49 50 50
21 22 23 23 24 24 23 24 24 25 24 24 25 25 27 28 30 30 32 34 35 37 37 37 38 38 40 40 40 40 40 40 41 42 43 44 45 46 46 47 48 48 49 50
21 22 22 22 22 21 22 23 24 24 24 25 26 27 27 28 28 29 30 32 33 34 35 36 37 37 38 39 39 40 39 40 40 41 41 42 43 44 45 46 47 47 48 49
20 21 21 21 20 20 22 23 24 25 26 26 27 28 28 29 29 30 30 31 31 32 33 34 35 35 36 37 38 38 38 39 40 41 41 41 42 43 44 44 46 47 48 48
21 21 21 22 21 21 22 23 23 24 25 26 27 27 28 28 29 30 30 30 31 31 32 32 33 33 33 35 36 37 38 38 38 39 39 39 40 41 42 43 44 45 46 46
20 21 21 22 22 22 22 22 22 23 24 25 25 26 27 27 27 28 29 29 30 30 30 30 30 30 31 33 34 36 36 37 37 37 38 39 40 40 41 42 43 43 44 45
20 21 21 21 21 22 22 22 23 23 24 24 25 26 27 27 27 27 27 27 27 28 28 28 28 29 30 31 32 33 34 35 35 35 37 38 39 40 41 42 43 43 43 43
Wind_Direction
267 264 263 264 263 262 261 262 261 259 257 256 255 253 253 252 251 250 250 249 248 246 245 245 245 245 245 245 245 245 245 246 246 246 247 246 246 246 246 247 248 250 251 252
266 264 265 263 261 260 260 260 259 258 258 257 256 254 252 252 251 251 250 249 248 247 246 245 246 246 246 246 245 245 245 245 245 246 247 246 246 247 247 248 249 249 251 252
268 267 265 262 261 260 260 260 259 259 259 258 258 255 253 252 251 251 250 250 249 248 247 246 246 246 246 246 246 245 245 245 245 246 246 246 247 247 247 249 249 250 251 252
268 266 264 262 261 260 260 260 259 259 260 259 258 257 252 251 250 250 251 250 250 249 249 247 246 246 246 246 246 246 246 245 246 246 246 246 247 247 247 249 249 249 250 251
268 266 263 261 260 260 259 259 258 259 259 259 257 257 253 250 250 251 252 251 250 250 249 248 247 246 246 247 246 246 246 246 246 247 247 246 247 247 248 249 249 250 249 250
266 264 262 260 258 259 259 259 258 257 258 257 256 258 255 252 252 251 251 252 251 250 250 249 248 248 247 247 247 246 246 246 246 246 246 247 248 248 248 249 250 250 249 251
265 262 260 258 256 256 257 257 257 257 256 258 257 258 257 254 253 252 252 251 252 251 251 250 250 250 249 249 248 247 247 246 246 247 247 248 248 249 249 250 250 250 251 252
266 262 260 259 257 256 256 256 258 260 260 259 259 259 258 257 255 254 253 253 252 252 252 252 251 251 250 249 249 248 248 246 246 247 247 248 248 249 249 249 250 251 252 253
267 264 262 260 258 257 256 255 257 260 261 260 260 260 259 258 257 256 254 253 253 253 253 253 252 251 251 249 249 248 247 247 246 246 247 248 248 249 249 249 250 251 253 253
268 266 263 262 259 257 257 256 257 257 260 261 260 259 259 258 257 256 255 254 254 254 254 254 254 253 251 249 248 248 247 246 246 247 247 248 248 249 250 250 250 251 253 253
270 268 266 265 262 259 256 254 254 256 259 261 261 259 259 259 259 258 257 256 255 255 254 253 253 253 251 250 249 248 248 247 247 247 247 248 249 250 251 251 252 253 253 253
270 269 267 265 265 263 260 256 254 255 257 259 260 260 259 260 260 259 258 258 257 257 256 254 253 253 252 251 250 249 249 248 248 248 248 249 249 250 251 251 252 254 254 255
272 270 269 266 265 264 264 260 257 255 255 257 259 260 260 261 260 260 259 258 259 259 258 257 255 254 253 252 251 251 250 250 249 249 249 250 251 251 252 253 253 254 256 256
274 271 269 267 267 265 263 261 259 256 255 256 257 259 258 258 259 260 259 258 258 259 259 258 256 254 253 252 251 251 251 251 250 250 250 251 252 253 253 254 255 256 257 258
276 272 270 268 267 266 265 262 260 258 256 257 257 257 258 259 260 260 260 259 259 259 259 258 257 255 254 253 252 252 252 252 252 252 252 253 254 254 254 255 255 256 257 259
279 276 271 269 268 267 266 264 262 259 257 256 257 257 257 260 260 260 260 259 259 259 260 260 259 258 256 255 254 253 254 254 254 254 253 254 255 256 256 256 257 257 258 259
281 278 275 272 270 268 267 267 265 261 258 257 257 258 258 260 259 259 259 260 260 260 260 260 259 259 258 257 255 255 255 255 255 255 255 256 256 257 257 258 258 258 259 259
284 281 277 274 270 269 268 265 264 262 260 259 258 259 260 261 260 259 259 259 260 260 261 261 260 259 259 258 258 257 256 256 256 256 256 257 257 258 258 259 259 259 259 260
286 282 277 274 271 269 265 264 264 264 263 261 260 259 261 261 261 260 260 261 262 262 262 262 261 259 258 258 258 258 258 257 257 257 257 257 257 257 258 259 260 260 260 260
286 282 278 275 272 270 267 265 266 267 267 265 263 263 263 262 263 262 261 262 263 263 264 263 262 259 258 258 258 259 259 259 258 258 258 258 258 258 259 260 260 261 261 262
285 281 278 275 274 272 268 267 267 269 270 269 267 266 266 265 265 264 263 264 264 265 265 265 264 262 260 259 258 259 259 259 259 259 259 259 259 259 260 260 261 262 263 263
286 283 280 277 275 275 270 269 270 271 270 271 271 269 269 268 268 268 267 267 267 267 266 266 265 264 261 259 259 259 259 259 260 260 260 260 260 260 260 261 262 263 264 265
282 281 279 279 279 276 274 275 275 273 273 272 272 271 271 271 271 270 269 269 269 269 268 267 266 264 261 260 260 260 261 261 261 261 261 261 261 261 262 263 264 265 266 267
281 279 278 277 276 276 277 278 278 277 276 275 274 273 273 273 272 272 271 270 271 270 270 268 266 264 262 261 262 262 262 263 263 263 262 262 263 263 264 265 266 267 268 268
283 280 278 277 277 277 278 278 278 277 277 277 277 277 275 274 274 273 272 272 272 271 270 269 267 265 264 263 264 264 264 264 264 264 264 265 265 265 266 266 267 268 268 269
283 279 278 278 279 280 281 280 280 279 279 279 279 279 278 277 275 274 274 274 273 271 269 268 268 268 268 267 267 266 266 266 266 266 267 267 267 267 267 267 268 269 270 270